CAPE
47 212 1682 1796 1462 1017 413 88 17 0 0 0 0 2 67 75 61 31 11 0 0 0 0 1 20 52 40 44 79 52 10 0 0 0 0 0 0 0 0 5 2 7 0
89 354 2128 2046 1632 1004 503 122 33 1 0 0 0 2 58 85 77 52 19 0 0 0 0 0 0 3 9 34 26 11 7 0 0 0 0 0 0 0 0 16 19 3 0
191 541 1378 2130 1850 1462 556 202 44 11 0 0 5 42 45 17 38 19 16 0 0 0 0 0 0 0 0 3 0 0 0 0 0 0 0 0 0 0 1 0 18 1 0
273 567 1184 2188 2019 1534 693 253 43 4 0 0 11 36 10 39 25 3 0 0 0 0 0 0 0 0 0 0 0 0 0 0 0 0 0 0 0 0 0 16 11 31 11
385 847 1405 2226 2117 1574 834 300 72 1 0 0 0 12 12 33 30 11 0 0 0 0 0 0 0 0 0 0 0 0 0 0 0 0 0 0 0 0 0 0 7 105 44
879 1284 1676 2178 2077 1532 1169 382 129 22 0 0 0 0 22 24 21 33 47 52 13 0 0 0 0 0 0 0 0 5 21 22 8 0 0 0 0 0 0 0 0 0 4
1094 1363 1622 2117 2111 1707 1304 641 214 98 16 0 0 4 16 46 59 78 121 156 8 0 0 0 1 7 7 4 3 1 0 45 3 5 0 0 0 2 37 28 6 7 31
1150 1344 1546 1783 2100 1833 1412 965 483 137 68 0 0 0 5 36 12 191 216 104 22 0 0 0 2 14 4 2 11 28 34 55 2 2 2 3 0 26 129 159 156 97 54
1039 1213 1442 1621 1766 1663 1385 1077 827 468 252 100 21 0 7 38 0 202 158 74 38 32 4 18 44 31 54 87 110 110 107 68 63 31 5 4 0 76 199 323 281 384 332
791 1119 1443 1745 1831 1707 1269 1029 903 728 521 380 142 27 8 6 0 6 102 121 70 33 59 63 124 180 180 120 92 34 0 0 0 0 0 0 15 186 234 228 240 346 407
688 991 1288 1596 1811 1667 1318 930 798 654 380 253 91 9 4 0 0 0 0 0 14 48 71 81 102 8 1 0 0 0 0 0 0 0 0 0 0 10 0 0 0 93 48
1047 1001 1236 1446 1578 1553 1160 1004 857 600 417 143 60 40 0 0 0 0 0 0 4 2 6 13 4 0 0 0 0 0 0 0 0 0 0 0 0 0 0 0 0 26 22
876 1137 1130 1310 1316 1258 1327 967 807 591 384 187 86 31 0 0 0 0 0 10 18 10 39 39 0 0 0 0 0 0 0 0 0 0 0 0 0 0 0 11 1 0 0
514 1162 1245 1220 1530 1158 1218 991 749 495 380 282 139 41 14 0 0 5 27 0 0 4 0 0 0 0 0 0 0 0 0 0 0 0 0 0 0 0 0 0 0 0 1
107 347 1164 1320 1496 1266 1178 902 711 467 397 286 135 41 21 0 4 34 0 4 3 0 0 0 0 0 0 0 0 0 0 0 0 0 0 0 0 0 0 0 0 0 0
0 13 194 1081 1220 1304 1275 984 653 472 381 233 133 94 63 18 35 66 14 7 0 0 0 0 0 0 0 0 0 0 0 0 0 0 0 0 0 0 0 0 0 0 0
0 0 0 303 1016 1193 1218 1027 550 432 507 269 216 237 210 72 38 34 16 0 0 0 0 0 0 0 0 0 0 0 0 0 0 0 0 0 0 0 0 0 0 0 0
0 0 0 27 658 943 1108 965 679 690 619 467 308 140 96 99 133 7 3 1 0 0 0 0 0 0 0 0 0 0 0 0 0 0 0 0 0 0 0 0 0 0 0
0 0 0 195 492 608 994 785 856 989 791 401 268 178 232 55 45 3 0 0 0 0 0 0 0 0 0 0 0 0 0 0 0 0 0 0 0 0 0 0 0 0 0
0 0 47 349 385 507 928 874 1002 1055 495 369 265 195 58 40 0 0 0 0 0 0 0 0 0 0 0 0 0 0 0 0 0 0 0 0 0 0 0 0 0 0 0
0 0 241 381 400 687 916 1012 834 875 495 357 273 234 130 33 0 0 0 0 0 0 0 0 0 0 0 0 0 0 0 0 0 0 0 0 0 0 0 0 0 0 0
0 49 296 615 432 758 902 950 611 425 390 360 220 178 64 25 0 0 0 0 0 0 0 0 0 0 0 0 0 0 0 0 0 0 0 0 0 0 0 0 0 0 0
0 46 788 566 626 889 886 1007 541 438 376 212 175 92 20 1 0 0 0 0 0 0 0 0 0 0 0 0 0 0 0 0 0 0 0 0 0 0 0 0 0 0 0
0 0 476 594 790 910 943 833 537 445 109 5 14 36 2 0 0 0 0 0 0 0 0 0 0 0 0 0 0 0 0 0 0 0 0 0 0 0 0 0 0 0 0
0 0 187 695 763 947 1083 794 470 392 77 2 11 0 0 0 0 0 0 0 0 0 0 0 0 0 0 0 0 0 0 0 0 0 0 0 0 0 0 0 0 0 0
0 0 96 586 819 891 922 613 408 337 1 0 1 0 0 0 0 0 0 0 0 0 0 0 0 0 0 0 0 0 0 0 0 0 0 0 0 0 0 0 0 0 0
CIN
-477 -328 -80 -41 -40 -59 -99 -189 -220 0 0 0 0 0 0 0 0 0 0 0 0 0 0 -1 -6 0 -1 -1 -216 0 -2 0 0 0 0 0 0 0 0 -5 -1 -1 0
-447 -302 -48 -32 -32 -61 -89 -152 -209 -31 0 0 0 0 0 -1 -4 -4 -1 0 0 0 0 0 0 -14 -2 -2 0 0 0 0 0 0 0 0 0 0 0 -3 -7 -2 0
-418 -282 -106 -34 -27 -28 -85 -129 -211 -277 0 0 -4 0 -1 -4 -6 -7 -5 0 0 0 0 0 0 0 0 -18 0 0 0 0 0 0 0 0 0 0 0 0 -9 -1 0
-390 -295 -134 -38 -25 -34 -79 -119 -247 -210 0 0 -2 -3 -5 -3 -1 -2 0 0 0 0 0 0 0 0 0 0 0 0 0 0 0 0 0 0 0 0 0 -2 -5 -396 -3
-367 -222 -95 -30 -28 -40 -87 -133 -232 -45 0 0 0 -5 -3 -3 -5 -5 0 0 0 0 0 0 0 0 0 0 0 0 0 0 0 0 0 0 0 0 0 0 -24 -329 -206
-291 -149 -71 -28 -31 -55 -65 -141 -190 -320 0 0 0 0 -12 -4 -3 -1 0 -1 -4 0 0 0 0 0 0 0 0 0 -4 -414 -5 0 0 0 0 0 0 0 0 -1 -1
-228 -132 -75 -30 -26 -36 -58 -107 -156 -207 -267 0 0 -8 -14 -3 -94 -127 -85 -71 -13 0 0 0 0 0 0 0 0 0 0 -278 -371 -361 0 -124 0 -293 -434 -463 -128 -586 -442
-218 -147 -90 -49 -22 -27 -43 -71 -114 -191 -229 0 0 0 -9 -201 -18 -45 -45 -97 -123 0 0 0 -128 -271 -266 -183 -301 -266 -257 -238 -208 -227 -534 -527 0 -435 -221 -182 -199 -268 -314
-236 -167 -101 -54 -30 -31 -41 -50 -64 -97 -120 -175 -164 -14 -192 -156 0 -35 -45 -113 -164 -187 -236 -221 -190 -215 -190 -160 -143 -151 -165 -229 -266 -337 -401 -502 0 -271 -122 -71 -93 -50 -72
-285 -183 -96 -37 -22 -25 -51 -54 -55 -62 -73 -70 -112 -176 -216 -222 0 -227 -66 -62 -118 -158 -149 -152 -114 -90 -93 -140 -185 -292 0 0 0 0 0 0 -402 -135 -107 -102 -89 -51 -41
-281 -200 -106 -45 -18 -19 -41 -66 -70 -77 -113 -121 -172 -297 -239 0 0 0 0 0 -239 -139 -133 -106 -110 -248 -207 0 0 0 0 0 0 0 0 0 0 -244 0 0 0 -198 -205
-191 -170 -113 -63 -25 -23 -51 -56 -58 -80 -95 -168 -208 -209 0 0 0 0 0 0 -111 -147 -232 -191 -113 0 0 0 0 0 0 0 0 0 0 0 0 0 0 0 0 -153 -77
-226 -162 -138 -95 -58 -50 -31 -58 -62 -76 -104 -157 -193 -242 0 0 0 0 0 -200 -194 -222 -152 -152 0 0 0 0 0 0 0 0 0 0 0 0 0 0 0 0 -1 0 0
-309 -193 -143 -117 -55 -73 -28 -55 -74 -107 -104 -117 -152 -227 -218 0 0 -252 -145 0 -5 0 0 0 0 0 0 0 0 0 0 0 0 0 0 0 0 0 0 0 0 0 0
-255 -314 -193 -131 -90 -86 -64 -71 -80 -116 -108 -115 -163 -238 -201 0 -192 -145 -1 -2 0 0 0 0 0 0 0 0 0 0 0 0 0 0 0 0 0 0 0 0 0 0 0
0 -338 -346 -203 -153 -100 -80 -71 -91 -109 -101 -129 -175 -149 -140 -156 -125 -103 -113 -32 0 0 0 0 0 0 0 0 0 0 0 0 0 0 0 0 0 0 0 0 0 0 0
0 0 0 -351 -212 -147 -96 -65 -102 -104 -58 -90 -107 -86 -62 -99 -95 -129 -149 0 0 0 0 0 0 0 0 0 0 0 0 0 0 0 0 0 0 0 0 0 0 0 0
0 0 0 -200 -298 -193 -103 -66 -53 -41 -27 -30 -58 -97 -104 -77 -33 -32 0 0 0 0 0 0 0 0 0 0 0 0 0 0 0 0 0 0 0 0 0 0 0 0 0
0 0 0 -401 -291 -229 -100 -65 -24 -2 -3 -26 -45 -57 -39 -87 -63 -1 0 0 0 0 0 0 0 0 0 0 0 0 0 0 0 0 0 0 0 0 0 0 0 0 0
0 0 -574 -299 -269 -211 -103 -54 -4 0 -9 -19 -24 -35 -66 -84 -10 0 0 0 0 0 0 0 0 0 0 0 0 0 0 0 0 0 0 0 0 0 0 0 0 0 0
0 0 -353 -269 -249 -181 -100 -37 -8 -1 -2 -6 -7 -11 -27 -79 0 0 0 0 0 0 0 0 0 0 0 0 0 0 0 0 0 0 0 0 0 0 0 0 0 0 0
0 -387 -306 -194 -230 -145 -96 -41 -21 -6 0 0 -4 -20 -39 -80 0 0 0 0 0 0 0 0 0 0 0 0 0 0 0 0 0 0 0 0 0 0 0 0 0 0 0
0 -325 -171 -215 -175 -98 -70 -6 -3 0 0 -5 -9 -24 -69 0 0 0 0 0 0 0 0 0 0 0 0 0 0 0 0 0 0 0 0 0 0 0 0 0 0 0 0
0 -86 -196 -159 -129 -76 -12 -1 -4 -1 -13 -16 -7 -30 0 0 0 0 0 0 0 0 0 0 0 0 0 0 0 0 0 0 0 0 0 0 0 0 0 0 0 0 0
0 0 -255 -112 -94 -30 0 -1 -2 0 -7 0 -32 0 0 0 0 0 0 0 0 0 0 0 0 0 0 0 0 0 0 0 0 0 0 0 0 0 0 0 0 0 0
0 0 -278 -119 -67 -22 -1 -5 0 0 -24 0 -19 0 0 0 0 0 0 0 0 0 0 0 0 0 0 0 0 0 0 0 0 0 0 0 0 0 0 0 0 0 0
Wind_Speed
nan 19 18 22 23 25 25 nan nan nan nan nan nan nan nan nan nan nan nan nan nan nan nan nan nan nan nan nan nan nan nan nan nan nan nan nan nan nan nan nan nan nan nan
nan 17 20 25 26 26 26 24 nan nan nan nan nan nan nan nan nan nan nan nan nan nan nan nan nan nan nan nan nan nan nan nan nan nan nan nan nan nan nan nan nan nan nan
23 20 21 23 27 26 25 26 nan nan nan nan nan nan nan nan nan nan nan nan nan nan nan nan nan nan nan nan nan nan nan nan nan nan nan nan nan nan nan nan nan nan nan
22 21 20 25 26 27 26 25 nan nan nan nan nan nan nan nan nan nan nan nan nan nan nan nan nan nan nan nan nan nan nan nan nan nan nan nan nan nan nan nan nan nan nan
22 22 21 22 26 26 28 25 nan nan nan nan nan nan nan nan nan nan nan nan nan nan nan nan nan nan nan nan nan nan nan nan nan nan nan nan nan nan nan nan nan 25 nan
30 27 24 25 27 27 27 24 21 nan nan nan nan nan nan nan nan nan nan nan nan nan nan nan nan nan nan nan nan nan nan nan nan nan nan nan nan nan nan nan nan nan nan
30 28 25 26 27 27 26 24 20 nan nan nan nan nan nan nan nan nan 8 17 nan nan nan nan nan nan nan nan nan nan nan nan nan nan nan nan nan nan nan nan nan nan nan
29 26 25 24 25 25 24 24 22 19 nan nan nan nan nan nan nan 15 16 15 nan nan nan nan nan nan nan nan nan nan nan nan nan nan nan nan nan nan 22 23 23 nan nan
25 25 24 22 23 24 23 25 23 20 18 18 nan nan nan nan nan 16 18 nan nan nan nan nan nan nan nan nan 18 20 20 nan nan nan nan nan nan nan 21 21 21 21 22
21 20 20 21 21 21 20 23 24 20 19 23 19 nan nan nan nan nan 19 18 nan nan nan nan 21 22 25 28 nan nan nan nan nan nan nan nan nan 25 27 30 28 26 23
20 18 19 21 21 21 22 20 20 19 20 25 nan nan nan nan nan nan nan nan nan nan nan nan 27 nan nan nan nan nan nan nan nan nan nan nan nan nan nan nan nan nan nan
19 19 19 20 21 22 21 22 21 19 24 26 nan nan nan nan nan nan nan nan nan nan nan nan nan nan nan nan nan nan nan nan nan nan nan nan nan nan nan nan nan nan nan
21 22 20 21 24 22 23 25 23 22 24 28 nan nan nan nan nan nan nan nan nan nan nan nan nan nan nan nan nan nan nan nan nan nan nan nan nan nan nan nan nan nan nan
23 21 22 22 26 25 26 27 27 24 25 25 28 nan nan nan nan nan nan nan nan nan nan nan nan nan nan nan nan nan nan nan nan nan nan nan nan nan nan nan nan nan nan
18 22 22 26 28 29 28 29 28 26 25 25 26 nan nan nan nan nan nan nan nan nan nan nan nan nan nan nan nan nan nan nan nan nan nan nan nan nan nan nan nan nan nan
nan nan 23 24 27 31 31 32 30 28 28 26 26 nan nan nan nan nan nan nan nan nan nan nan nan nan nan nan nan nan nan nan nan nan nan nan nan nan nan nan nan nan nan
nan nan nan 25 27 29 31 35 33 31 30 28 29 28 29 nan nan nan nan nan nan nan nan nan nan nan nan nan nan nan nan nan nan nan nan nan nan nan nan nan nan nan nan
nan nan nan nan 29 31 34 36 35 36 33 31 32 30 nan nan 30 nan nan nan nan nan nan nan nan nan nan nan nan nan nan nan nan nan nan nan nan nan nan nan nan nan nan
nan nan nan 31 33 34 39 40 39 38 34 32 34 33 31 nan nan nan nan nan nan nan nan nan nan nan nan nan nan nan nan nan nan nan nan nan nan nan nan nan nan nan nan
nan nan nan 35 38 40 44 46 41 39 34 33 34 35 nan nan nan nan nan nan nan nan nan nan nan nan nan nan nan nan nan nan nan nan nan nan nan nan nan nan nan nan nan
nan nan 38 36 41 42 45 46 40 38 34 33 34 35 34 nan nan nan nan nan nan nan nan nan nan nan nan nan nan nan nan nan nan nan nan nan nan nan nan nan nan nan nan
nan nan 37 38 40 41 42 43 38 37 35 33 32 36 nan nan nan nan nan nan nan nan nan nan nan nan nan nan nan nan nan nan nan nan nan nan nan nan nan nan nan nan nan
nan nan 34 41 41 42 45 45 42 40 37 33 33 nan nan nan nan nan nan nan nan nan nan nan nan nan nan nan nan nan nan nan nan nan nan nan nan nan nan nan nan nan nan
nan nan 35 40 44 44 43 41 44 38 36 nan nan nan nan nan nan nan nan nan nan nan nan nan nan nan nan nan nan nan nan nan nan nan nan nan nan nan nan nan nan nan nan
nan nan 37 40 45 44 42 40 40 42 nan nan nan nan nan nan nan nan nan nan nan nan nan nan nan nan nan nan nan nan nan nan nan nan nan nan nan nan nan nan nan nan nan
nan nan nan 38 43 44 42 41 43 45 nan nan nan nan nan nan nan nan nan nan nan nan nan nan nan nan nan nan nan nan nan nan nan nan nan nan nan nan nan nan nan nan nan
Wind_Direction
nan 307 315 309 308 305 307 nan nan nan nan nan nan nan nan nan nan nan nan nan nan nan nan nan nan nan nan nan nan nan nan nan nan nan nan nan nan nan nan nan nan nan nan
nan 300 302 302 307 307 309 307 nan nan nan nan nan nan nan nan nan nan nan nan nan nan nan nan nan nan nan nan nan nan nan nan nan nan nan nan nan nan nan nan nan nan nan
297 291 294 297 304 305 306 303 nan nan nan nan nan nan nan nan nan nan nan nan nan nan nan nan nan nan nan nan nan nan nan nan nan nan nan nan nan nan nan nan nan nan nan
296 288 288 296 301 304 303 301 nan nan nan nan nan nan nan nan nan nan nan nan nan nan nan nan nan nan nan nan nan nan nan nan nan nan nan nan nan nan nan nan nan nan nan
286 289 285 288 298 302 302 300 nan nan nan nan nan nan nan nan nan nan nan nan nan nan nan nan nan nan nan nan nan nan nan nan nan nan nan nan nan nan nan nan nan 295 nan
280 285 285 291 296 301 301 300 297 nan nan nan nan nan nan nan nan nan nan nan nan nan nan nan nan nan nan nan nan nan nan nan nan nan nan nan nan nan nan nan nan nan nan
281 279 281 285 295 302 301 299 295 nan nan nan nan nan nan nan nan nan 307 292 nan nan nan nan nan nan nan nan nan nan nan nan nan nan nan nan nan nan nan nan nan nan nan
285 280 280 284 290 296 299 296 293 290 nan nan nan nan nan nan nan 227 299 299 nan nan nan nan nan nan nan nan nan nan nan nan nan nan nan nan nan nan 284 286 290 nan nan
274 274 280 283 287 293 296 294 294 293 293 282 nan nan nan nan nan 238 268 nan nan nan nan nan nan nan nan nan 277 278 280 nan nan nan nan nan nan nan 284 287 288 292 299
260 263 272 276 280 289 293 294 294 295 289 286 276 nan nan nan nan nan 254 264 nan nan nan nan 293 290 282 273 nan nan nan nan nan nan nan nan nan 281 277 273 270 267 270
253 250 256 268 273 280 288 291 291 289 278 279 nan nan nan nan nan nan nan nan nan nan nan nan 284 nan nan nan nan nan nan nan nan nan nan nan nan nan nan nan nan nan nan
262 249 253 258 266 273 277 288 293 282 269 271 nan nan nan nan nan nan nan nan nan nan nan nan nan nan nan nan nan nan nan nan nan nan nan nan nan nan nan nan nan nan nan
258 245 250 259 264 274 274 274 274 278 276 263 nan nan nan nan nan nan nan nan nan nan nan nan nan nan nan nan nan nan nan nan nan nan nan nan nan nan nan nan nan nan nan
266 260 257 262 265 273 270 275 279 278 275 270 262 nan nan nan nan nan nan nan nan nan nan nan nan nan nan nan nan nan nan nan nan nan nan nan nan nan nan nan nan nan nan
254 264 264 265 263 268 272 270 274 278 276 275 265 nan nan nan nan nan nan nan nan nan nan nan nan nan nan nan nan nan nan nan nan nan nan nan nan nan nan nan nan nan nan
nan nan 265 276 275 275 275 274 272 275 279 272 267 nan nan nan nan nan nan nan nan nan nan nan nan nan nan nan nan nan nan nan nan nan nan nan nan nan nan nan nan nan nan
nan nan nan 272 277 279 279 276 275 275 275 271 265 268 269 nan nan nan nan nan nan nan nan nan nan nan nan nan nan nan nan nan nan nan nan nan nan nan nan nan nan nan nan
nan nan nan nan 283 280 274 273 270 269 268 267 263 262 nan nan 266 nan nan nan nan nan nan nan nan nan nan nan nan nan nan nan nan nan nan nan nan nan nan nan nan nan nan
nan nan nan 274 280 280 272 268 265 263 265 265 263 260 260 nan nan nan nan nan nan nan nan nan nan nan nan nan nan nan nan nan nan nan nan nan nan nan nan nan nan nan nan
nan nan nan 264 276 276 268 263 260 255 257 262 264 257 nan nan nan nan nan nan nan nan nan nan nan nan nan nan nan nan nan nan nan nan nan nan nan nan nan nan nan nan nan
nan nan 258 265 271 270 269 266 265 261 258 262 264 259 258 nan nan nan nan nan nan nan nan nan nan nan nan nan nan nan nan nan nan nan nan nan nan nan nan nan nan nan nan
nan nan 260 263 269 266 268 263 263 265 258 261 262 253 nan nan nan nan nan nan nan nan nan nan nan nan nan nan nan nan nan nan nan nan nan nan nan nan nan nan nan nan nan
nan nan 261 266 267 266 267 263 259 259 258 258 260 nan nan nan nan nan nan nan nan nan nan nan nan nan nan nan nan nan nan nan nan nan nan nan nan nan nan nan nan nan nan
nan nan 261 264 266 266 271 271 277 269 271 nan nan nan nan nan nan nan nan nan nan nan nan nan nan nan nan nan nan nan nan nan nan nan nan nan nan nan nan nan nan nan nan
nan nan 257 262 261 267 270 277 272 268 nan nan nan nan nan nan nan nan nan nan nan nan nan nan nan nan nan nan nan nan nan nan nan nan nan nan nan nan nan nan nan nan nan
nan nan nan 264 260 266 271 272 275 272 nan nan nan nan nan nan nan nan nan nan nan nan nan nan nan nan nan nan nan nan nan nan nan nan nan nan nan nan nan nan nan nan nan